Location: *
(8.8549°S, 77.5954°W)
Time: 00:27:56
(UTC+00:00)

Daily predictions for brighter satellites

Satellite Brightness Start Highest point End
(mag) Time Altitude Azimuth Time Altitude Azimuth Time Altitude Azimuth
CZ-4 R/B 1.8 00:00:48 10° SSE 00:04:51 45° E 00:08:51 10° N
FALCON 9 DEB 3.4 00:04:17 10° NNW 00:07:11 36° ENE 00:10:08 10° SE
SJ 16-02 3.8 00:05:35 10° SW 00:09:06 23° W 00:12:37 10° NNW
Cosmos 1606 Rocket 3.8 00:06:32 10° N 00:10:56 78° W 00:15:25 10° S
Cosmos 2278 Rocket 2.7 00:07:16 10° S 00:12:36 42° ESE 00:17:53 10° NE
Cosmos 1346 Rocket 4.0 00:12:45 10° SSE 00:15:55 23° E 00:18:30 13° NE
Cosmos 1703 3.9 00:15:35 10° SSW 00:19:28 58° W 00:23:18 10° N
ARIANE 5 R/B 3.2 00:13:37 10° WNW 00:20:24 27° NNW 00:22:25 14° NE
CZ-2C R/B 3.4 00:15:40 10° N 00:21:09 58° WNW 00:26:41 10° SSW
IRS-1C Rocket 4.4 00:21:26 10° S 00:26:42 72° WSW 00:31:55 10° NNW
Ariane H10+ 3.8 00:21:16 10° WNW 00:26:45 17° NNW 00:29:51 10° NNE
FALCON 9 DEB 3.0 00:23:51 10° NW 00:26:57 76° SW 00:30:07 10° SSE
DMSP B5D2-2 4.4 00:23:54 10° N 00:29:08 71° WNW 00:34:24 10° SSW
ASTRO E2 3.0 00:25:23 10° SW 00:29:17 53° SSE 00:31:43 21° ENE
Okean-O 2.6 00:26:52 10° SSE 00:31:19 89° W 00:35:43 10° NNW
Cosmos 773 Rocket 4.3 00:28:02 10° N 00:32:47 40° ENE 00:37:34 10° SSE
IUS-13 SRM-1 4.2 00:05:28 10° WNW 00:33:33 90° NNE 00:37:56 10° ESE
Cosmos 2058 Rocket 3.0 00:29:29 10° N 00:34:00 85° E 00:38:32 10° S
Cosmos 1937 Rocket 4.0 00:30:45 10° SSW 00:35:53 62° WNW 00:41:03 10° N
CSL-04 Rocket 3.8 00:31:53 10° SSE 00:36:56 46° ENE 00:42:00 10° N
Helios 1A Rocket 2.8 00:32:54 10° SSE 00:37:00 78° ENE 00:41:05 10° N
Meteor 2-1 Rocket 4.5 00:32:20 10° NNE 00:37:29 42° E 00:42:42 10° SSE
Ariane H10-3 1.3 00:35:23 10° W 00:38:49 47° N 00:39:22 36° NE
CZ-2C R/B 4.5 00:38:15 10° S 00:42:40 37° WSW 00:47:12 10° NW
SWARM A 4.3 00:39:59 10° SSE 00:43:15 54° E 00:44:36 30° NNE
Cosmos 1603 3.6 00:44:57 10° NNW 00:50:40 84° ENE 00:56:26 10° SSE
Cosmos 44 Rocket 4.0 00:47:12 10° S 00:51:20 32° ESE 00:52:05 30° E
Cosmos 372 Rocket 3.8 00:46:20 10° S 00:51:27 83° ESE 00:55:02 20° NNE
Cosmos 1758 Rocket 4.5 00:52:00 10° SSW 00:56:11 47° W 01:00:22 10° NNW
ARIANE 5 R/B 2.5 00:55:14 10° WNW 00:58:06 62° N 01:01:57 28° E
Ariane 42L Rocket 2.5 00:58:21 10° WNW 01:00:59 51° NNE 01:01:34 47° NE
Aureole 3 Rocket 4.0 01:06:38 36° ESE 01:06:38 36° ESE 01:10:54 10° SSE
Delta 2 Rocket 3.7 01:03:06 10° SW 01:06:28 40° SE 01:06:28 40° SE
GPS 2-18 Rocket1 4.4 01:04:02 10° W 01:07:43 37° SSW 01:09:23 25° SSE
Cosmos 1455 2.7 01:04:28 12° NNW 01:07:52 59° W 01:11:41 10° S
H-2A R/B 3.4 01:03:48 10° S 01:08:21 38° WSW 01:12:51 10° NW
Cosmos 2150 Rocket 4.0 01:06:22 10° S 01:11:30 57° ESE 01:12:09 53° ENE
MetOp-A 4.4 01:09:09 10° SSE 01:13:50 46° E 01:13:50 46° E
Iridium 4 Rocket 3.9 01:09:30 10° N 01:14:30 57° W 01:19:07 10° SSW
Skynet4D Del rocket 4.4 01:11:45 10° W 01:17:00 37° NNW 01:18:10 33° N
NATO 3D Rocket 3.6 01:12:09 10° WSW 01:17:11 79° SSE 01:18:37 53° E
USA 186 4.0 01:16:06 10° S 01:17:08 19° S 01:17:08 19° S
ARGOS 4.1 01:16:47 10° S 01:21:54 46° WSW 01:26:59 10° NNW
OAO 3 Rocket 3.7 01:20:26 10° SW 01:25:13 50° SSE 01:25:13 50° SSE
MOS 1-B Rocket 4.3 01:25:19 52° ENE 01:26:37 61° ESE 01:33:55 10° S
Ariane H10+ 4.1 01:27:28 10° WNW 01:31:52 67° NNE 10:59:31 10° ENE
Delta 202 4.4 01:22:01 10° WNW 01:32:25 81° NNE 01:34:30 52° E
Cosmos 2298 Rocket 4.2 01:28:12 10° SSW 01:33:28 69° WNW 01:34:14 60° NNW
In-Cosmos 22 Rocket 4.4 01:29:52 10° SSW 01:35:34 70° W 01:37:12 47° NNW
CZ-3C R/B 2.7 01:24:25 10° WSW 01:37:59 46° S 01:38:32 44° SSE
CZ-2C R/B 4.4 01:38:15 48° WNW 01:38:43 50° WNW 01:43:17 10° SSW
Intercosmos 25 Rocket 4.4 01:30:05 10° S 01:38:56 85° E 01:39:43 70° NNE
ATLAS 3B R/B 3.7 01:47:02 10° NW 01:54:07 50° WSW 02:01:19 10° S
Cosmos 2369 Rocket 4.4 01:50:25 10° SSE 01:51:24 14° SSE 01:51:24 14° SSE
CZ-3A R/B 4.2 01:55:09 10° WSW 02:06:12 85° SSE 02:10:27 58° ENE
Cosmos 1943 Rocket 3.9 02:18:15 10° SSW 02:20:36 26° SSW 02:20:36 26° SSW
Cosmos 2297 Rocket 4.3 08:03:35 22° SSE 08:03:35 22° SSE 08:05:35 10° SSE
NOSS 3-4 (A) 4.2 08:18:10 72° SE 08:18:10 72° SE 08:25:36 10° SSE
NOSS 3-4 (C) 4.2 08:18:14 72° ESE 08:18:14 72° ESE 08:25:43 10° SSE
ALOS 4.2 08:32:33 26° E 08:32:57 26° ESE 08:36:50 10° SSE
ATLAS 2AS CENTAUR R/B 2.8 08:35:33 62° ESE 08:35:33 62° ESE 08:40:52 10° SSE
Cosmos 2016 Rocket 4.2 08:38:17 10° S 08:44:38 68° E 08:45:33 60° NE
ADEOS Rocket 4.3 08:37:54 10° SSE 08:45:13 49° ENE 08:49:59 23° NNE
Cosmos 2061 Rocket 4.2 08:40:25 10° S 08:46:35 67° E 08:47:31 58° NE
Cosmos 1725 Rocket 4.5 08:41:16 10° S 08:47:28 58° E 08:50:16 33° NNE
ARIANE 44LP R/B 4.0 08:50:23 60° N 08:50:32 60° N 09:16:25 10° E
Cosmos 1447 Rocket 4.5 08:51:28 70° NE 08:51:58 75° E 08:58:07 10° S
SWIFT 3.6 09:01:58 39° ESE 09:01:58 39° ESE 09:04:42 10° ESE
FENGYUN 3A 3.7 09:03:32 51° NNE 09:04:56 79° ESE 09:10:23 10° S
ARIANE 5 DEB (SYLDA) 3.9 09:05:43 48° NNW 09:07:24 57° N 09:32:33 10° E
Cosmos 2322 3.7 09:02:37 10° SSW 09:07:27 63° SW 09:07:27 63° SW
Cosmos 2333 Rocket 2.0 09:04:33 10° SSW 09:10:15 86° WNW 09:13:06 31° NNE
Cosmos 1766 4.1 09:08:22 10° S 09:11:18 46° SSE 09:11:18 46° SSE
USA 32 4.3 09:08:05 10° S 09:13:17 65° E 09:16:33 23° NNE
Meteor 1-15 Rocket 4.0 09:07:53 10° S 09:13:28 74° W 09:13:59 69° NW
CZ-4C R/B 3.4 09:15:58 44° WNW 09:18:00 51° WSW 09:25:54 10° S
Cosmos 2227 Rocket 3.6 09:20:35 23° SW 09:20:35 23° SW 09:23:44 10° SSW
Meteor 1-31 Rocket 3.9 09:17:17 14° NNE 09:20:26 43° ESE 09:24:11 10° S
IRAS Rocket 4.4 09:17:14 10° S 09:22:37 51° WSW 09:22:59 50° W
Cosmos 1733 4.2 09:19:22 10° S 09:21:51 38° SSW 09:21:51 38° SSW
BREEZE-M DEB 4.1 09:25:06 24° SE 09:25:06 24° SE 09:26:28 10° SE
Cosmos 1864 Rocket 4.5 09:18:05 10° SSW 09:24:11 58° W 09:26:19 39° NNW
Cosmos 2219 Rocket 2.0 09:21:56 10° SSW 09:27:33 66° WNW 09:33:05 10° N
Intercosmos 25 3.9 09:28:39 39° SSW 09:28:39 39° SSW 09:31:16 10° S
COSMOS 2428 2.6 09:23:27 10° SSW 09:29:11 80° WNW 09:34:53 10° NNE
GPS 2-18 Rocket1 4.5 09:32:41 27° NNE 09:32:41 27° NNE 09:34:46 10° NE
Meteor 2-11 Rocket 4.4 09:25:17 10° SSW 09:31:18 62° W 09:35:41 19° N
Cosmos 1707 2.8 09:39:23 54° W 09:39:23 54° W 09:43:10 10° S
Cosmos 2233 Rocket 3.9 09:33:41 10° S 09:40:01 75° W 09:46:18 10° N
GPS 2-14 Rocket1 3.5 09:41:12 32° SW 09:42:02 37° SSW 09:45:36 10° SE
Hubble Space Telescope 0.8 09:42:54 47° W 09:43:53 66° SSW 09:47:59 10° SE
ASC 2 Rocket 3.2 09:45:20 41° NW 09:45:48 43° NNW 09:49:38 10° NE
ISS -1.7 09:45:08 16° NNE 09:46:49 23° NE 09:49:33 10° ESE
ADEOS 3.6 09:43:11 10° N 09:48:14 52° WNW 09:53:19 10° SSW
Okean 1 Rocket 3.1 09:45:04 10° SSW 09:49:27 58° W 09:53:24 13° N
RESURS DK-1 2.2 09:47:37 29° NNW 09:49:38 86° WSW 09:53:46 10° SSE
Cosmos 1674 3.3 09:50:30 10° N 09:54:09 56° E 09:57:49 10° SSE
CZ-4B R/B 4.1 09:50:06 10° N 09:54:22 52° WNW 09:58:31 10° SSW
Gbstr 26 Del rocket 4.3 09:51:22 10° WSW 09:56:53 42° NW 10:03:31 10° NNE
Cosmos 1486 Rocket 4.0 09:54:35 20° NNW 09:58:11 60° WSW 10:03:23 10° S
CZ-4B R/B 3.0 09:55:37 10° NNE 09:59:22 73° ESE 10:03:20 10° S
ARIANE 5 R/B 2.8 10:01:41 20° N 10:01:41 20° N 10:02:59 10° NE
Cosmos 968 Rocket 3.8 09:59:37 20° NW 10:02:58 47° WSW 10:08:01 10° S
deb Chang Zheng 4 3.4 10:00:07 10° N 10:04:17 65° WNW 10:08:30 10° SSW
Cosmos 1025 Rocket 2.9 10:00:39 10° N 10:05:00 75° W 10:09:23 10° S
Landsat 5 3.6 10:01:15 10° S 10:05:46 81° W 10:10:16 10° NNW
Cosmos 1470 2.6 10:05:10 10° S 10:09:05 71° W 10:12:57 10° N
Cosmos 1975 Rocket 4.3 10:08:52 20° WNW 10:09:50 21° W 10:13:12 10° SW
ALOS 3.9 10:11:03 15° W 10:11:03 15° W 10:12:54 10° WSW
ATLAS 5 CENTAUR R/B 3.1 10:05:01 17° NW 10:10:30 49° WSW 10:17:31 10° S
X-37B 1.0 10:09:44 25° WNW 10:11:14 46° SW 10:14:18 10° SSE
Cosmos 540 Rocket 3.8 10:07:27 10° S 10:12:33 69° ESE 10:17:35 10° NNE
Delta 202 4.4 10:06:52 10° WSW 10:13:10 86° NNW 10:22:34 10° ENE
ATLAS CENTAUR R/B 3.4 10:15:36 10° S 10:19:23 32° ESE 10:22:57 10° NE
KORONAS-FOTON 3.9 10:15:46 10° NNW 10:19:30 53° W 10:23:13 10° S
Cosmos 921 Rocket 3.2 10:15:15 10° SSW 10:19:33 48° W 10:23:46 10° N
GPS 2-12 Rocket1 3.2 10:16:27 16° WNW 10:20:18 75° SSW 10:25:08 10° ESE
Cosmos 2263 Rocket 2.2 10:16:50 10° NNW 10:22:18 62° WSW 10:27:48 10° S
NOSS 3-2 (A) 3.7 10:18:31 10° SSW 10:23:59 62° ESE 10:29:14 10° NNE
CZ-4C R/B 3.8 10:21:50 10° SSW 10:25:06 33° WSW 10:28:17 10° NW
Cosmos 1570 Rocket 4.4 10:20:01 10° S 10:25:15 69° ESE 10:30:25 10° NNE
Cosmos 1503 Rocket 4.0 10:20:30 10° NNW 10:25:38 61° WSW 10:30:47 10° S
Cosmos 1356 Rocket 4.0 10:22:20 10° SSW 10:25:55 32° W 10:29:29 10° NNW
EUTELSAT W3B 4.2 10:22:00 12° WNW 10:26:33 30° NNW 10:28:44 10° NE
CZ-4B R/B 3.4 10:24:41 10° SE 10:27:30 28° E 10:30:21 10° NNE
Cosmos 1763 Rocket 4.2 10:24:03 10° SW 10:28:26 30° W 10:32:51 10° NNW
Ariane H10-3 3.5 10:21:46 12° WNW 10:28:58 38° N 10:31:45 10° ENE
Cosmos 841 Rocket 3.4 10:25:46 10° SSW 10:30:56 77° WNW 10:36:03 10° N
NOSS 0 Rocket 4.3 10:26:21 10° SW 10:32:07 40° WNW 10:37:52 10° N
Cosmos 1726 2.3 10:30:11 10° SSW 10:33:42 46° W 10:37:13 10° NNW
Cosmos 1626 2.1 10:30:03 10° N 10:33:43 88° W 10:37:26 10° S
SL-4 R/B 3.0 10:33:38 10° WSW 10:36:10 19° NW 10:38:44 10° N
SJ-7 4.3 10:32:31 10° N 10:36:34 74° W 10:40:35 10° SSW
USA 307 3.1 10:33:07 10° SW 10:37:15 50° WNW 10:41:21 10° NNE
Ariane H10+ 2.8 10:36:32 10° NW 10:37:48 13° N 10:38:59 10° NNE
H-2A R/B 2.5 10:35:38 10° S 10:39:39 42° WSW 10:43:45 10° NNW
Cosmos 2208 Rocket 4.3 10:34:27 10° S 10:39:52 79° E 10:45:17 10° NNE
USA 267 3.3 10:34:18 10° SSE 10:40:52 77° SW 10:47:25 10° NW
YAOGAN 6 2.6 10:37:39 10° N 10:41:19 75° W 10:44:59 10° SSW
SWIFT 3.9 10:38:57 10° WSW 10:42:33 27° SSW 10:46:09 10° SE
SJ 16-02 4.4 10:40:56 10° NE 10:43:00 13° E 10:45:04 10° ESE
SL-16 R/B 3.6 10:39:35 10° S 10:45:00 46° ESE 10:50:21 10° NE
Cosmos 2034 Rocket 4.1 10:39:11 10° S 10:45:31 89° E 10:51:52 10° N
USA 308 3.4 10:41:48 10° SW 10:45:47 39° WNW 10:49:44 10° NNE
